Location: Czekanka
(50.4925°N, 19.2643°E)
Time: 01:53:00
(UTC+00:00)

IDEFIX/ARIANE 42P - Pass Details

Date: 15 June 2024
Orbit: 782 x 800 km, 98.5° (Epoch: 22 July)

Event Time Altitude Azimuth Distance (km) Brightness Sun altitude
Rises 00:02:28 0° 19° (NNE) 3,319 7.8 -14.1°
Reaches altitude 10° 00:04:55 10° 25° (NNE) 2,383 6.5 -14.0°
Maximum altitude 00:09:58 45° 98° (E) 1,075 3.3 -13.7°
Enters shadow 00:14:13 14° 168° (SSE) 2,088 4.3 -13.5°
